Погода в Большевике

Россия / Волгоградская область     50°38′33″N   43°45′16″E
темп.,
°C
ветер,
м/с
пор.,
м/с
влажн.,
%
обл.,
%
осадки,
мм/ч
давл.,
гПа
погр.,
м
10 апреля, сб
сб1000:00+3ссв61483100 0.0 1022553
03:00+3ссв71485100 0.1 1022518
06:00+3ссв71388100 0.0 1022533
09:00+4ссв71287100 0.1 1021481
12:00+7ссв7981100 0.0 1021594
15:00+9ссв7974100 0.0 1020865
18:00+8с7108396 0.0 1020590
21:00+5с61090100 0.0 1021377
11 апреля, вс
вс1100:00+4с5993100 0.0 1022328
03:00+4с51094100 0.0 1022361
06:00+4ссв51096100 0.0 1023369
09:00+6св6992100 0.0 1024395
12:00+11св4577100 0.0 1024489
15:00+15всв5668100 0.0 1023756
18:00+12св4883100 0.0 1024252
21:00+11св489199 0.0 1024141
12 апреля, пн
пн1200:00+10в358493 0.0 102464
03:00+10в4578100 0.0 102554
06:00+9в497473 0.0 1026127
09:00+16вюв6114716 0.0 1026438
12:00+20вюв8113721 0.0 10261172
15:00+21вюв811315 0.0 10251684
18:00+18вюв611435 0.0 1026291
21:00+12в4125548 0.0 1027199
13 апреля, вт
вт1300:00+11вюв514565 0.0 1027263
03:00+9вюв5136246 0.0 1027217
06:00+8вюв4116799 0.0 1027181
09:00+15вюв6104470 0.0 1027417
12:00+19вюв8113097 0.0 1026977
15:00+20юв810304 0.0 10251574
18:00+18вюв611414 0.0 1025330
21:00+13вюв412555 0.0 1025194
14 апреля, ср
ср1400:00+11вюв412550 0.0 1025191
03:00+9вюв41162100 0.0 1024162
06:00+9вюв4106481 0.0 1024158
09:00+15вюв694496 0.0 1023454
12:00+20юв673066 0.0 10221312
15:00+20юв6727100 0.0 10212126
18:00+17вюв3541100 0.0 102076
21:00+13вюв48538 0.0 1020114